Hamilton, OH

7:06 PM EDT on March 27, 2017 (GMT -0400)
Butler County Regional

Weather History for KHAO - May, 2013

Change the Weather History Date:

Friday, May 10, 2013

  Actual Average (KLUK) Record (KLUK)
Temperature  
Mean Temperature 64 °F -  
Max Temperature 72 °F 72 °F 87 °F (1979)
Min Temperature 57 °F 48 °F 27 °F (1966)
Degree Days  
Heating Degree Days 2    
Growing Degree Days 14 (Base 50)    
Moisture  
Dew Point 61 °F    
Average Humidity 92    
Maximum Humidity 100    
Minimum Humidity 68    
Precipitation  
Precipitation 1.14 in - - ()
Sea Level Pressure  
Sea Level Pressure 29.89 in    
Wind  
Wind Speed 4 mph (SSW)    
Max Wind Speed 13 mph    
Max Gust Speed 26 mph    
Visibility 6 miles    
Events Fog , Rain , Thunderstorm    
Averages and records for this station are not official NWS values.
T = Trace of Precipitation, MM = Missing Value Source: NWS Daily Summary

Daily Weather History Graph

Daily Weather History Graph

Search for Another Location

Airport or City:

Trip Planner

Search our weather history database for the weather conditions in past years. The results will help you decide how hot, cold, wet, or windy it might be!

Date:

Astronomy

May. 10, 2013 Rise Set
Actual Time 6:28 AM EDT 8:40 PM EDT
Civil Twilight 5:59 AM EDT 9:10 PM EDT
Nautical Twilight 5:22 AM EDT 9:47 PM EDT
Astronomical Twilight 4:42 AM EDT 10:27 PM EDT
Moon 6:52 AM EDT (5/10) 9:29 PM EDT (5/10)
Length of Visible Light 15h 11m
Length of Day
14h 11m
New Moon, 0% of the Moon is Illuminated
May 10
New Moon
May 18
First Quarter
May 25
Full
May 31
Last Quarter
Jun 8
New

Hourly Weather History & Observations

Time (EDT) Temp. Dew Point Humidity Pressure Visibility Wind Dir Wind Speed Gust Speed Precip Events Conditions
12:53 AM 68.0 °F 57.0 °F 68% 29.93 in 10.0 mi Variable 3.5 mph - 0.00 in Rain Light Rain
1:06 AM 66.2 °F 59.0 °F 78% 29.99 in 8.0 mi West 10.4 mph 16.1 mph 0.00 in Rain , Thunderstorm Light Rain
1:41 AM 60.8 °F 57.2 °F 88% 29.96 in 2.5 mi East 5.8 mph - 0.20 in Rain , Thunderstorm Heavy Thunderstorms and Rain
1:51 AM 60.8 °F 57.2 °F 88% 29.95 in 9.0 mi SE 3.5 mph - 0.21 in Rain , Thunderstorm Light Thunderstorms and Rain
1:53 AM 60.1 °F 57.9 °F 93% 29.94 in 10.0 mi ESE 3.5 mph - 0.21 in Rain , Thunderstorm Light Rain
2:05 AM 60.8 °F 59.0 °F 94% 29.95 in 10.0 mi Calm Calm - 0.00 in   Overcast
2:53 AM 60.1 °F 59.0 °F 96% 29.92 in 8.0 mi ESE 4.6 mph - 0.00 in   Mostly Cloudy
3:05 AM 60.8 °F 59.0 °F 94% 29.92 in 9.0 mi East 4.6 mph - N/A Thunderstorm Scattered Clouds
3:28 AM 60.8 °F 59.0 °F 94% 29.92 in 8.0 mi ESE 3.5 mph - 0.00 in Rain Light Rain
3:53 AM 60.1 °F 59.0 °F 96% 29.91 in 6.0 mi Calm Calm - 0.00 in   Partly Cloudy
4:49 AM 57.2 °F 57.2 °F 100% 29.91 in 0.8 mi Calm Calm - N/A   Partly Cloudy
4:53 AM 57.0 °F 57.0 °F 100% 29.90 in 0.5 mi Calm Calm - N/A Fog Fog
5:08 AM 57.2 °F 57.2 °F 100% 29.91 in 1.8 mi Calm Calm - N/A   Mostly Cloudy
5:16 AM 57.2 °F 57.2 °F 100% 29.91 in 2.5 mi Calm Calm - N/A   Overcast
5:29 AM 59.0 °F 57.2 °F 94% 29.90 in 3.0 mi Calm Calm - N/A   Overcast
5:53 AM 60.1 °F 59.0 °F 96% 29.89 in 4.0 mi Calm Calm - N/A   Mostly Cloudy
6:53 AM 60.1 °F 59.0 °F 96% 29.89 in 5.0 mi ESE 3.5 mph - N/A   Clear
7:53 AM 62.1 °F 61.0 °F 96% 29.90 in 5.0 mi East 3.5 mph - N/A   Scattered Clouds
9:53 AM 70.0 °F 63.0 °F 78% 29.89 in 10.0 mi SSW 5.8 mph - N/A   Clear
10:53 AM 70.0 °F 62.1 °F 76% 29.89 in 10.0 mi SSW 6.9 mph - N/A   Mostly Cloudy
11:38 AM 69.8 °F 62.6 °F 78% 29.90 in 9.0 mi WSW 4.6 mph - 0.00 in Rain Light Rain
11:53 AM 68.0 °F 63.0 °F 84% 29.89 in 10.0 mi SSW 3.5 mph - 0.01 in Rain Light Rain
12:14 PM 68.0 °F 62.6 °F 83% 29.90 in 9.0 mi SW 3.5 mph - 0.00 in Rain , Thunderstorm Light Rain
12:21 PM 66.2 °F 62.6 °F 88% 29.93 in 1.5 mi SW 12.7 mph 21.9 mph 0.06 in Rain , Thunderstorm Light Rain
12:29 PM 62.6 °F 60.8 °F 94% 29.93 in 0.2 mi SSW 10.4 mph 26.5 mph 0.39 in Fog , Rain , Thunderstorm Heavy Thunderstorms and Rain
12:43 PM 62.6 °F 60.8 °F 94% 29.93 in 1.0 mi SSW 9.2 mph 24.2 mph 0.54 in Rain , Thunderstorm Thunderstorms and Rain
12:48 PM 62.6 °F 60.8 °F 94% 29.93 in 2.0 mi SSW 8.1 mph - 0.55 in Rain , Thunderstorm Thunderstorms and Rain
12:53 PM 63.0 °F 61.0 °F 93% 29.92 in 2.5 mi SSW 8.1 mph - 0.57 in Rain , Thunderstorm Thunderstorms and Rain
1:05 PM 62.6 °F 60.8 °F 94% 29.92 in 1.5 mi SSW 10.4 mph 19.6 mph 0.05 in Rain , Thunderstorm Heavy Rain
1:17 PM 62.6 °F 60.8 °F 94% 29.92 in 2.0 mi SSW 6.9 mph 17.3 mph 0.10 in Rain Rain
1:30 PM 64.4 °F 62.6 °F 94% 29.91 in 3.0 mi SSW 6.9 mph - 0.12 in Rain Rain
1:53 PM 64.0 °F 62.1 °F 93% 29.90 in 4.0 mi SSW 5.8 mph - 0.16 in Rain Light Rain
2:53 PM 64.9 °F 63.0 °F 93% 29.89 in 4.0 mi SW 5.8 mph - 0.06 in Rain Light Rain
3:53 PM 64.0 °F 62.1 °F 93% 29.86 in 3.0 mi Variable 5.8 mph - 0.06 in Rain Rain
4:53 PM 64.0 °F 62.1 °F 93% 29.84 in 5.0 mi West 3.5 mph - 0.06 in Rain Light Rain
5:31 PM 64.4 °F 62.6 °F 94% 29.84 in 10.0 mi SW 4.6 mph - 0.00 in   Mostly Cloudy
5:49 PM 64.4 °F 62.6 °F 94% 29.84 in 10.0 mi SW 3.5 mph - 0.00 in   Overcast
5:53 PM 64.9 °F 62.1 °F 90% 29.84 in 10.0 mi SW 4.6 mph - 0.00 in   Overcast
6:22 PM 64.4 °F 62.6 °F 94% 29.83 in 10.0 mi SW 3.5 mph - 0.00 in Rain Light Rain
6:53 PM 64.9 °F 62.1 °F 90% 29.83 in 8.0 mi Calm Calm - 0.00 in Rain Light Rain
7:42 PM 64.4 °F 62.6 °F 94% 29.84 in 10.0 mi SW 4.6 mph - 0.01 in   Mostly Cloudy
7:53 PM 64.9 °F 62.1 °F 90% 29.84 in 10.0 mi SW 8.1 mph - 0.01 in   Mostly Cloudy
8:42 PM 64.4 °F 60.8 °F 88% 29.85 in 10.0 mi SW 4.6 mph - N/A   Overcast
8:53 PM 64.0 °F 62.1 °F 93% 29.85 in 10.0 mi SW 3.5 mph - N/A   Overcast
9:53 PM 63.0 °F 61.0 °F 93% 29.86 in 10.0 mi Calm Calm - N/A   Overcast
10:18 PM 62.6 °F 60.8 °F 94% 29.86 in 10.0 mi Calm Calm - 0.00 in   Overcast
10:53 PM 63.0 °F 61.0 °F 93% 29.86 in 9.0 mi Calm Calm - 0.00 in   Overcast
11:02 PM 62.6 °F 62.6 °F 100% 29.87 in 7.0 mi Calm Calm - N/A   Overcast
11:16 PM 62.6 °F 62.6 °F 100% 29.87 in 9.0 mi Calm Calm - 0.00 in Rain Light Rain
11:39 PM 62.6 °F 60.8 °F 94% 29.87 in 8.0 mi NW 12.7 mph - 0.00 in Rain Light Rain
11:53 PM 62.1 °F 59.0 °F 90% 29.87 in 7.0 mi NW 8.1 mph - 0.00 in   Overcast